This demonstration page uses our WeatherBlox Daily Observations layout. Learn more.

39.29038, -76.61219

Hourly Observations for July 16, 2020

Temp ( °F °C ) Dew Point ( °F °C ) Humidity (%) Winds ( mph kmh ) Pressure ( in mb ) Visibility ( mi km ) Precip ( " mm )
12:54 am 00:54 Mostly Cloudy 75 23.9 68 20 79 79 E 8 13 30.21 1023 10 16.0934 0 0
1:54 am 01:54 Cloudy 75 23.9 68 20 79 79 ESE 6 9 30.22 1023 10 16.0934 0 0
2:54 am 02:54 Cloudy 75 23.9 68 20 79 79 E 6 9 30.21 1023 10 16.0934 0 0
3:54 am 03:54 Cloudy 74 23.3 69 20.6 85 85 E 5 7 30.2 1023 10 16.0934 0 0
4:08 am 04:08 Cloudy 74 23.3 69 20.6 85 85 E 7 11 30.2 1023 10 16.0934 0 0
4:54 am 04:54 Cloudy 74 23.3 69 20.6 85 85 E 8 13 30.2 1023 10 16.0934 0 0
5:54 am 05:54 Mostly Cloudy with Haze 74 23.3 69 20.6 85 85 ESE 9 15 30.22 1023 6 9.65604 0 0
6:04 am 06:04 Mostly Cloudy with Haze 74 23.3 69 20.6 85 85 E 8 13 30.22 1023 6 9.65604 0 0
6:47 am 06:47 Cloudy with Haze 74 23.3 69 20.6 85 85 ESE 9 15 30.22 1023 6 9.65604 0 0
6:54 am 06:54 Cloudy with Haze 75 23.9 69 20.6 82 82 ESE 9 15 30.22 1023 6 9.65604 0 0
7:54 am 07:54 Cloudy 75 23.9 69 20.6 82 82 ESE 12 19 30.23 1024 7 11.26538 0 0
8:54 am 08:54 Cloudy 76 24.4 69 20.6 79 79 ESE 13 20 30.23 1024 7 11.26538 0 0
9:39 am 09:39 Mostly Cloudy 78 25.6 69 20.6 74 74 ESE 9 15 30.23 1024 10 16.0934 0 0
9:54 am 09:54 Mostly Cloudy 78 25.6 69 20.6 74 74 E 12 19 30.23 1024 10 16.0934 0 0
10:54 am 10:54 Cloudy 80 26.7 69 20.6 69 69 ESE 10 17 30.23 1024 10 16.0934 0 0
11:54 am 11:54 Cloudy 81 27.2 69 20.6 67 67 SE 8 13 30.24 1024 10 16.0934 0 0
12:30 pm 12:30 Mostly Cloudy 84 28.9 70 21.1 63 63 SSE 9 15 30.23 1024 10 16.0934 0 0
12:54 pm 12:54 Mostly Cloudy 84 28.9 69 20.6 61 61 SE 14 22 30.23 1024 10 16.0934 0 0
1:54 pm 13:54 Mostly Cloudy 86 30 68 20 55 55 SE 13 20 30.21 1023 10 16.0934 0 0
2:54 pm 14:54 Mostly Cloudy 86 30 67 19.4 53 53 SE 9 15 30.19 1022 10 16.0934 0 0
3:54 pm 15:54 Mostly Cloudy 86 30 68 20 55 55 SSE 13 20 30.17 1022 10 16.0934 0 0
4:54 pm 16:54 Mostly Cloudy 85 29.4 67 19.4 55 55 SE 12 19 30.17 1022 10 16.0934 0 0
5:54 pm 17:54 Mostly Cloudy 85 29.4 67 19.4 55 55 SE 6 9 30.16 1021 10 16.0934 0 0
6:54 pm 18:54 Partly Cloudy 83 28.3 68 20 61 61 SSE 5 7 30.15 1021 10 16.0934 0 0
7:54 pm 19:54 Mostly Cloudy 81 27.2 68 20 65 65 S 8 13 30.15 1021 10 16.0934 0 0
8:54 pm 20:54 Mostly Cloudy 80 26.7 68 20 67 67 S 8 13 30.15 1021 10 16.0934 0 0
9:54 pm 21:54 Mostly Cloudy 79 26.1 68 20 69 69 SSE 6 9 30.16 1022 10 16.0934 0 0
10:54 pm 22:54 Mostly Cloudy 78 25.6 68 20 71 71 VRB 7 11 30.16 1022 10 16.0934 0 0
11:31 pm 23:31 Cloudy 78 25.6 68 20 71 71 SSE 6 9 30.16 1021 10 16.0934 0 0
11:54 pm 23:54 Mostly Cloudy 78 25.6 69 20.6 74 74 SSE 6 9 30.17 1022 10 16.0934 0 0

Powered by AerisWeather